Pierce City, MO

9:53 PM CDT on August 23, 2016 (GMT -0500)
Monett

Weather History for KHFJ - October, 2012

Change the Weather History Date:

Sunday, October 14, 2012

  Actual Average (KJLN) Record (KJLN)
Temperature  
Mean Temperature 60 °F 60 °F  
Max Temperature 69 °F 72 °F 90 °F (1963)
Min Temperature 51 °F 49 °F 32 °F (2002)
Degree Days  
Heating Degree Days 5 6  
Month to date heating degree days 70  
Since 1 July heating degree days 112  
Cooling Degree Days 0 1  
Month to date cooling degree days 32  
Year to date cooling degree days 1674  
Growing Degree Days 10 (Base 50)    
Moisture  
Dew Point 52 °F    
Average Humidity 73    
Maximum Humidity 94    
Minimum Humidity 46    
Precipitation  
Precipitation 0.00 in 0.13 in 1.10 in (1985)
Month to date precipitation 1.84  
Year to date precipitation 37.76  
Sea Level Pressure  
Sea Level Pressure 29.88 in    
Wind  
Wind Speed 13 mph (WSW)    
Max Wind Speed 21 mph    
Max Gust Speed 29 mph    
Visibility 10 miles    
Events      
T = Trace of Precipitation, MM = Missing Value Source: NWS Daily Summary

Daily Weather History Graph

Daily Weather History Graph

Search for Another Location

Airport or City:

Trip Planner

Search our weather history database for the weather conditions in past years. The results will help you decide how hot, cold, wet, or windy it might be!

Date:

Astronomy

Oct. 14, 2012 Rise Set
Actual Time 7:23 AM CDT 6:40 PM CDT
Civil Twilight 6:57 AM CDT 7:06 PM CDT
Nautical Twilight 6:26 AM CDT 7:36 PM CDT
Astronomical Twilight 5:56 AM CDT 8:06 PM CDT
Moon 6:23 AM CDT (10/14) 6:00 PM CDT (10/14)
Length of Visible Light 12h 09m
Length of Day
11h 16m
Waning Crescent, 1% of the Moon is Illuminated
Oct 14
Waning Crescent
Oct 15
New
Oct 21
First Quarter
Oct 29
Full
Nov 6
Last Quarter

Hourly Weather History & Observations

Time (CDT) Temp. Dew Point Humidity Pressure Visibility Wind Dir Wind Speed Gust Speed Precip Events Conditions
12:15 AM 62.6 °F 60.8 °F 94% 29.74 in 10.0 mi South 11.5 mph - N/A   Mostly Cloudy
12:35 AM 62.6 °F 60.8 °F 94% 29.76 in 10.0 mi South 11.5 mph - N/A   Scattered Clouds
12:55 AM 62.6 °F 60.8 °F 94% 29.73 in 10.0 mi South 12.7 mph 17.3 mph N/A   Mostly Cloudy
1:15 AM 62.6 °F 60.8 °F 94% 29.72 in 10.0 mi South 16.1 mph 23.0 mph N/A   Overcast
1:35 AM 62.6 °F 60.8 °F 94% 29.71 in 10.0 mi South 18.4 mph 24.2 mph N/A   Overcast
1:55 AM 62.6 °F 60.8 °F 94% 29.71 in 10.0 mi South 17.3 mph 24.2 mph N/A   Overcast
2:15 AM 62.6 °F 60.8 °F 94% 29.71 in 10.0 mi SSW 20.7 mph 25.3 mph N/A   Overcast
2:35 AM 62.6 °F 60.8 °F 94% 29.69 in 10.0 mi SSW 18.4 mph 24.2 mph N/A   Overcast
2:55 AM 62.6 °F 60.8 °F 94% 29.68 in 10.0 mi SSW 15.0 mph 21.9 mph N/A   Mostly Cloudy
3:15 AM 62.6 °F 60.8 °F 94% 29.69 in 10.0 mi SSW 13.8 mph - N/A   Mostly Cloudy
3:35 AM 62.6 °F 60.8 °F 94% 29.68 in 10.0 mi South 13.8 mph 18.4 mph N/A   Mostly Cloudy
3:55 AM 62.6 °F 60.8 °F 94% 29.68 in 10.0 mi SSW 13.8 mph 23.0 mph N/A   Mostly Cloudy
4:15 AM 62.6 °F 60.8 °F 94% 29.68 in 10.0 mi SSW 13.8 mph - N/A   Mostly Cloudy
4:35 AM 62.6 °F 60.8 °F 94% 29.69 in 10.0 mi SW 15.0 mph 20.7 mph N/A   Mostly Cloudy
4:55 AM 60.8 °F 59.0 °F 94% 29.70 in 10.0 mi SW 17.3 mph 21.9 mph N/A   Mostly Cloudy
5:15 AM 60.8 °F 59.0 °F 94% 29.70 in 10.0 mi SW 13.8 mph 23.0 mph N/A   Scattered Clouds
5:35 AM 60.8 °F 57.2 °F 88% 29.72 in 10.0 mi SW 16.1 mph 21.9 mph N/A   Clear
5:55 AM 60.8 °F 57.2 °F 88% 29.71 in 10.0 mi SW 16.1 mph 20.7 mph N/A   Clear
6:15 AM 59.0 °F 55.4 °F 88% 29.73 in 10.0 mi SW 13.8 mph 20.7 mph N/A   Clear
6:35 AM 59.0 °F 55.4 °F 88% 29.74 in 10.0 mi SW 11.5 mph - N/A   Clear
6:55 AM 59.0 °F 55.4 °F 88% 29.75 in 10.0 mi SW 11.5 mph - N/A   Clear
7:15 AM 59.0 °F 53.6 °F 82% 29.76 in 10.0 mi SW 12.7 mph - N/A   Clear
7:35 AM 59.0 °F 53.6 °F 82% 29.77 in 10.0 mi SW 13.8 mph - N/A   Clear
7:55 AM 59.0 °F 51.8 °F 77% 29.79 in 10.0 mi WSW 16.1 mph 21.9 mph N/A   Clear
8:15 AM 59.0 °F 51.8 °F 77% 29.80 in 10.0 mi WSW 12.7 mph 19.6 mph N/A   Mostly Cloudy
8:35 AM 59.0 °F 51.8 °F 77% 29.83 in 10.0 mi WSW 13.8 mph 24.2 mph N/A   Overcast
8:55 AM 59.0 °F 51.8 °F 77% 29.84 in 10.0 mi WSW 16.1 mph 19.6 mph N/A   Overcast
9:15 AM 59.0 °F 51.8 °F 77% 29.84 in 10.0 mi WSW 12.7 mph - N/A   Overcast
9:35 AM 59.0 °F 53.6 °F 82% 29.86 in 10.0 mi WSW 13.8 mph - N/A   Overcast
9:55 AM 59.0 °F 53.6 °F 82% 29.86 in 10.0 mi WSW 13.8 mph - N/A   Overcast
10:15 AM 60.8 °F 53.6 °F 77% 29.87 in 10.0 mi WSW 11.5 mph 17.3 mph N/A   Mostly Cloudy
10:35 AM 60.8 °F 53.6 °F 77% 29.90 in 10.0 mi West 13.8 mph - N/A   Overcast
10:55 AM 60.8 °F 53.6 °F 77% 29.90 in 10.0 mi West 11.5 mph - N/A   Overcast
11:15 AM 62.6 °F 53.6 °F 72% 29.91 in 10.0 mi West 15.0 mph 18.4 mph N/A   Overcast
11:35 AM 62.6 °F 53.6 °F 72% 29.93 in 10.0 mi West 17.3 mph 20.7 mph N/A   Overcast
11:55 AM 64.4 °F 53.6 °F 68% 29.94 in 10.0 mi WNW 16.1 mph 21.9 mph N/A   Overcast
12:15 PM 64.4 °F 53.6 °F 68% 29.94 in 10.0 mi West 13.8 mph 19.6 mph N/A   Mostly Cloudy
12:35 PM 64.4 °F 53.6 °F 68% 29.95 in 10.0 mi West 16.1 mph 21.9 mph N/A   Mostly Cloudy
12:55 PM 66.2 °F 53.6 °F 64% 29.95 in 10.0 mi West 16.1 mph - N/A   Overcast
1:15 PM 68.0 °F 53.6 °F 60% 29.95 in 10.0 mi West 17.3 mph 20.7 mph N/A   Mostly Cloudy
1:35 PM 68.0 °F 51.8 °F 56% 29.96 in 10.0 mi West 17.3 mph 21.9 mph N/A   Mostly Cloudy
1:55 PM 68.0 °F 51.8 °F 56% 29.96 in 10.0 mi West 17.3 mph 28.8 mph N/A   Scattered Clouds
2:15 PM 68.0 °F 51.8 °F 56% 29.96 in 10.0 mi West 16.1 mph 23.0 mph N/A   Mostly Cloudy
2:35 PM 68.0 °F 51.8 °F 56% 29.95 in 10.0 mi West 16.1 mph 25.3 mph N/A   Scattered Clouds
2:55 PM 68.0 °F 51.8 °F 56% 29.96 in 10.0 mi West 18.4 mph 25.3 mph N/A   Scattered Clouds
3:15 PM 68.0 °F 50.0 °F 52% 29.96 in 10.0 mi West 18.4 mph 24.2 mph N/A   Clear
3:35 PM 68.0 °F 48.2 °F 49% 29.97 in 10.0 mi West 18.4 mph 23.0 mph N/A   Clear
3:55 PM 69.8 °F 48.2 °F 46% 29.97 in 10.0 mi WNW 15.0 mph - N/A   Clear
4:15 PM 69.8 °F 48.2 °F 46% 29.97 in 10.0 mi West 18.4 mph 25.3 mph N/A   Clear
4:35 PM 68.0 °F 46.4 °F 46% 29.98 in 10.0 mi West 15.0 mph 19.6 mph N/A   Clear
4:55 PM 68.0 °F 46.4 °F 46% 29.99 in 10.0 mi WNW 13.8 mph 21.9 mph N/A   Clear
5:15 PM 68.0 °F 46.4 °F 46% 29.99 in 10.0 mi West 13.8 mph 17.3 mph N/A   Clear
5:35 PM 68.0 °F 46.4 °F 46% 29.99 in 10.0 mi WNW 13.8 mph 18.4 mph N/A   Clear
5:55 PM 66.2 °F 46.4 °F 49% 30.00 in 10.0 mi West 10.4 mph - N/A   Clear
6:15 PM 64.4 °F 46.4 °F 52% 30.00 in 10.0 mi WNW 8.1 mph - N/A   Clear
6:35 PM 62.6 °F 46.4 °F 55% 30.01 in 10.0 mi West 8.1 mph - N/A   Clear
7:15 PM 60.8 °F 46.4 °F 59% 30.01 in 10.0 mi West 6.9 mph - N/A   Clear
7:35 PM 59.0 °F 44.6 °F 59% 30.01 in 10.0 mi West 5.8 mph - N/A   Clear
7:55 PM 59.0 °F 44.6 °F 59% 30.01 in 10.0 mi WSW 4.6 mph - N/A   Clear
8:15 PM 59.0 °F 44.6 °F 59% 30.02 in 10.0 mi West 5.8 mph - N/A   Clear
8:35 PM 57.2 °F 44.6 °F 63% 30.03 in 10.0 mi WSW 4.6 mph - N/A   Clear
8:55 PM 55.4 °F 44.6 °F 67% 30.03 in 10.0 mi Calm Calm - N/A   Clear
9:15 PM 55.4 °F 44.6 °F 67% 30.04 in 10.0 mi WSW 3.5 mph - N/A   Clear
9:35 PM 55.4 °F 44.6 °F 67% 30.04 in 10.0 mi West 4.6 mph - N/A   Clear
9:55 PM 55.4 °F 44.6 °F 67% 30.05 in 10.0 mi West 3.5 mph - N/A   Clear
10:15 PM 55.4 °F 44.6 °F 67% 30.05 in 10.0 mi WSW 3.5 mph - N/A   Clear
10:35 PM 53.6 °F 44.6 °F 72% 30.05 in 10.0 mi WSW 3.5 mph - N/A   Clear
10:55 PM 53.6 °F 46.4 °F 77% 30.06 in 10.0 mi WSW 3.5 mph - N/A   Clear
11:15 PM 53.6 °F 44.6 °F 72% 30.06 in 10.0 mi Calm Calm - N/A   Clear
11:35 PM 51.8 °F 44.6 °F 76% 30.05 in 10.0 mi Calm Calm - N/A   Clear
11:55 PM 51.8 °F 44.6 °F 76% 30.05 in 10.0 mi SW 4.6 mph - N/A   Clear